Stations météo

réclame
Mon MeteoGroup
Angelholm, Suède (2607): Température de l'air & dewpoint: 08.08.2020 06:00:00 - 14.08.2020 06:00:00 (CEST)Angelholm, Suède (2607): Vitesse du vent: 08.08.2020 06:00:00 - 14.08.2020 06:00:00 (CEST)Angelholm, Suède (2607): Direction du vent: 08.08.2020 06:00:00 - 14.08.2020 06:00:00 (CEST)Angelholm, Suède (2607): reduced air pressure: 08.08.2020 06:00:00 - 14.08.2020 06:00:00 (CEST)Angelholm, Suède (2607): visibility: 08.08.2020 06:00:00 - 14.08.2020 06:00:00 (CEST)
Date & Time tt [°C] td [°C] ff [km/h] ff [knt] dd ppp [hPa] vv [km]
14.08.2020 06:00:00 13,0 12,0 5 3 S - 10
14.08.2020 05:00:00 12,7 11,6 4 2 ESE 1015,6 10
14.08.2020 04:00:00 13,6 12,7 0 0 N 1016,0 10
14.08.2020 03:00:00 13,9 12,6 2 1 ENE 1016,2 10
14.08.2020 02:00:00 13,7 12,4 2 1 E 1016,7 10
14.08.2020 01:00:00 14,4 12,6 5 3 SE 1016,9 10
14.08.2020 00:00:00 14,8 12,8 5 3 ESE 1016,9 10
13.08.2020 23:00:00 15,8 13,1 8 4 E 1016,7 10
13.08.2020 22:00:00 17,6 14,5 8 4 ENE 1016,6 10
13.08.2020 21:00:00 20,3 13,7 8 4 NNE 1016,5 10
13.08.2020 20:00:00 21,9 14,0 11 6 NNE 1016,4 10
13.08.2020 19:00:00 25,5 12,4 13 7 E 1016,0 10
13.08.2020 18:00:00 25,8 12,6 13 7 ENE 1016,3 10
13.08.2020 17:00:00 25,9 12,7 8 4 E 1016,6 10
13.08.2020 16:00:00 25,4 11,6 8 4 N 1017,1 10
13.08.2020 15:00:00 25,6 11,7 8 4 - 1017,6 10
13.08.2020 14:00:00 25,5 13,7 9 5 WNW 1018,0 10
13.08.2020 13:00:00 24,8 13,0 8 4 ESE 1018,4 10
13.08.2020 12:00:00 23,9 13,1 5 3 E 1018,9 10
13.08.2020 11:00:00 22,6 13,1 8 4 ESE 1019,1 10
13.08.2020 10:00:00 21,0 12,7 9 5 E 1019,2 10
13.08.2020 09:00:00 17,8 12,9 9 5 E 1019,3 10
13.08.2020 08:00:00 16,2 13,1 9 5 E 1019,3 10
13.08.2020 07:00:00 14,2 11,5 2 1 E 1019,4 10
13.08.2020 06:00:00 10,9 9,8 4 2 E 1019,7 10
13.08.2020 05:00:00 11,4 10,1 5 3 ESE 1020,0 10
13.08.2020 04:00:00 11,9 10,3 4 2 E 1020,3 10
13.08.2020 03:00:00 12,3 10,7 0 0 N 1020,6 10
13.08.2020 02:00:00 13,3 11,9 0 0 N 1020,9 10
13.08.2020 01:00:00 13,9 12,1 0 0 N 1021,1 10
13.08.2020 00:00:00 15,0 11,8 4 2 ESE 1021,2 10
12.08.2020 23:00:00 15,7 12,1 5 3 ESE 1020,9 10
12.08.2020 22:00:00 17,9 12,6 5 3 SE 1020,8 10
12.08.2020 21:00:00 20,7 14,8 5 3 SW 1020,5 10
12.08.2020 20:00:00 22,4 12,6 5 3 WNW 1020,6 10
12.08.2020 19:00:00 23,0 12,9 8 4 WNW 1021,0 10
12.08.2020 18:00:00 23,7 12,4 13 7 W 1021,3 10
12.08.2020 17:00:00 25,8 12,6 9 5 - 1021,6 10
12.08.2020 16:00:00 25,2 12,8 15 8 ENE 1021,9 10
12.08.2020 15:00:00 24,9 12,1 13 7 ENE 1022,3 10
12.08.2020 14:00:00 24,5 11,1 16 9 E 1023,0 10
12.08.2020 13:00:00 23,7 9,7 11 6 E 1023,5 10
12.08.2020 12:00:00 22,8 10,2 13 7 ESE 1023,5 10
12.08.2020 11:00:00 21,0 12,7 15 8 ESE 1024,0 10
12.08.2020 10:00:00 18,9 12,6 13 7 E 1024,1 10
12.08.2020 09:00:00 16,9 13,6 15 8 E 1024,4 10
12.08.2020 08:00:00 16,1 13,8 15 8 E 1024,4 10
12.08.2020 07:00:00 15,2 13,4 9 5 E 1024,5 10
12.08.2020 06:00:00 14,2 12,9 9 5 E 1024,4 10
12.08.2020 05:00:00 14,8 13,5 9 5 E 1024,5 10
12.08.2020 04:00:00 14,9 12,8 5 3 E 1024,9 10
12.08.2020 03:00:00 15,2 12,7 4 2 - 1024,7 10
12.08.2020 02:00:00 15,2 12,7 5 3 E 1024,7 10
12.08.2020 01:00:00 15,5 12,6 9 5 E 1024,9 10
12.08.2020 00:00:00 16,0 12,6 11 6 E 1024,6 10
11.08.2020 23:00:00 16,3 13,4 9 5 E 1024,3 10
11.08.2020 22:00:00 17,4 13,7 8 4 E 1024,1 10
11.08.2020 21:00:00 18,9 13,5 16 9 ESE 1023,8 10
11.08.2020 20:00:00 21,8 13,4 15 8 SE 1023,5 10
11.08.2020 19:00:00 23,9 13,7 15 8 SE 1023,4 10
11.08.2020 18:00:00 24,8 14,6 13 7 E 1023,7 10
11.08.2020 17:00:00 25,0 13,2 15 8 SE 1023,9 10
11.08.2020 16:00:00 25,9 14,0 16 9 SSE 1023,9 10
11.08.2020 15:00:00 25,4 14,8 11 6 ESE 1024,2 10
11.08.2020 14:00:00 25,1 14,8 18 10 E 1024,4 10
11.08.2020 13:00:00 24,4 14,2 16 9 E 1024,4 10
11.08.2020 12:00:00 23,6 14,6 18 10 E 1024,4 10
11.08.2020 11:00:00 22,0 13,1 22 12 E 1024,5 10
11.08.2020 10:00:00 20,8 13,0 18 10 E 1024,3 10
11.08.2020 09:00:00 18,9 12,6 21 11 E 1024,4 10
11.08.2020 08:00:00 17,6 14,1 13 7 E 1024,4 10
11.08.2020 07:00:00 16,1 14,1 11 6 ENE 1024,2 10
11.08.2020 06:00:00 15,5 13,9 11 6 E 1024,0 10
11.08.2020 05:00:00 15,8 14,3 15 8 E 1023,9 10
11.08.2020 04:00:00 16,1 14,6 13 7 E 1023,9 10
11.08.2020 03:00:00 16,4 14,4 11 6 E 1023,9 10
11.08.2020 02:00:00 15,1 13,1 8 4 E 1024,0 10
11.08.2020 01:00:00 16,5 13,0 11 6 E 1023,7 10
11.08.2020 00:00:00 17,0 12,5 11 6 E 1023,4 10
10.08.2020 23:00:00 18,3 13,0 11 6 E 1023,1 10
10.08.2020 22:00:00 19,4 15,1 11 6 E 1022,6 10
10.08.2020 21:00:00 20,3 15,9 13 7 SE 1021,9 10
10.08.2020 20:00:00 22,6 17,7 15 8 E 1021,2 10
10.08.2020 19:00:00 24,0 18,9 15 8 E 1020,8 10
10.08.2020 18:00:00 24,9 18,6 5 3 ESE 1020,9 10
10.08.2020 17:00:00 24,9 19,0 16 9 ESE 1021,6 10
10.08.2020 16:00:00 23,9 19,8 16 9 E 1021,2 10
10.08.2020 15:00:00 21,3 19,0 22 12 E 1021,2 10
10.08.2020 14:00:00 22,0 18,6 22 12 NE 1021,4 10
10.08.2020 13:00:00 24,5 17,7 9 5 E 1021,8 10
10.08.2020 12:00:00 24,2 17,9 18 10 E 1021,6 10
10.08.2020 11:00:00 23,5 17,3 16 9 E 1021,0 10
10.08.2020 10:00:00 21,4 17,0 9 5 E 1020,9 10
10.08.2020 09:00:00 21,0 17,2 9 5 E 1020,7 10
10.08.2020 08:00:00 20,6 16,4 11 6 E 1020,7 10
10.08.2020 07:00:00 18,5 16,3 8 4 E 1020,6 10
10.08.2020 06:00:00 16,9 15,4 4 2 - 1020,6 10
10.08.2020 05:00:00 16,4 14,1 0 0 N 1020,3 10
10.08.2020 04:00:00 15,7 13,7 8 4 ESE 1020,1 10
10.08.2020 03:00:00 16,3 14,3 2 1 - 1020,0 10
10.08.2020 02:00:00 16,8 14,6 4 2 - 1019,8 10
10.08.2020 01:00:00 19,1 15,8 0 0 N 1019,9 10
10.08.2020 00:00:00 21,0 14,9 0 0 N 1019,8 10
09.08.2020 23:00:00 20,9 14,8 9 5 WNW 1019,9 10
09.08.2020 22:00:00 21,5 13,9 9 5 W 1019,9 10
09.08.2020 21:00:00 21,9 13,5 15 8 WNW 1019,8 10
09.08.2020 20:00:00 24,4 13,6 16 9 NW 1019,5 10
09.08.2020 19:00:00 25,8 14,0 16 9 NW 1019,4 10
09.08.2020 18:00:00 26,0 13,8 22 12 NW 1019,7 10
09.08.2020 17:00:00 27,7 14,0 22 12 NW 1019,7 10
09.08.2020 16:00:00 28,0 15,3 22 12 WNW 1019,9 10
09.08.2020 15:00:00 28,8 15,7 18 10 WNW 1020,3 10
09.08.2020 14:00:00 29,5 14,9 16 9 W 1020,4 10
09.08.2020 13:00:00 28,2 16,8 13 7 WSW 1020,4 10
09.08.2020 12:00:00 27,6 16,6 13 7 WSW 1020,7 10
09.08.2020 11:00:00 25,3 17,5 8 4 SW 1020,9 10
09.08.2020 10:00:00 24,0 17,7 8 4 SW 1021,0 10
09.08.2020 09:00:00 22,9 16,4 0 0 N 1021,0 10
09.08.2020 08:00:00 19,2 15,5 2 1 - 1021,2 10
09.08.2020 07:00:00 16,2 13,5 0 0 N 1021,0 10
09.08.2020 06:00:00 13,3 12,0 0 0 N 1020,8 10
09.08.2020 05:00:00 13,5 12,1 0 0 N 1020,7 10
09.08.2020 04:00:00 13,9 12,5 0 0 N 1020,8 10
09.08.2020 03:00:00 14,1 12,3 2 1 - 1020,9 10
09.08.2020 02:00:00 15,7 12,8 0 0 N 1020,9 10
09.08.2020 01:00:00 16,1 13,0 0 0 N 1021,0 10
09.08.2020 00:00:00 15,9 13,0 0 0 N 1020,9 10
08.08.2020 23:00:00 17,6 14,3 5 3 ESE 1021,0 10
08.08.2020 22:00:00 18,7 14,0 5 3 WNW 1021,1 10
08.08.2020 21:00:00 21,0 13,4 8 4 WNW 1020,9 10
08.08.2020 20:00:00 22,3 13,9 9 5 NW 1020,7 10
08.08.2020 19:00:00 23,4 14,9 21 11 NW 1020,8 10
08.08.2020 18:00:00 25,8 14,9 16 9 W 1020,8 10
08.08.2020 17:00:00 27,5 16,8 16 9 WNW 1020,8 10
08.08.2020 16:00:00 25,3 17,2 18 10 W 1020,9 10
08.08.2020 15:00:00 26,6 16,5 13 7 W 1021,0 10
08.08.2020 14:00:00 26,8 15,5 11 6 WNW 1021,4 10
08.08.2020 13:00:00 25,8 15,8 13 7 WNW 1021,7 10
08.08.2020 12:00:00 25,7 17,1 4 2 SW 1021,8 10
08.08.2020 11:00:00 25,1 16,8 4 2 ESE 1022,0 10
08.08.2020 10:00:00 23,0 15,8 5 3 - 1022,3 10
08.08.2020 09:00:00 21,1 14,5 11 6 ESE 1022,6 10
08.08.2020 08:00:00 19,5 13,7 9 5 E 1022,8 10
08.08.2020 07:00:00 17,0 12,9 9 5 ESE 1022,8 10
08.08.2020 06:00:00 15,0 11,8 9 5 ESE 1022,8 10

tt = Température de l'air
td = dewpoint
ff = Vitesse du vent
dd = Direction du vent
ppp = reduced air pressure
vv = visibility

stations d'obs. à proximité